Location: Boca do Mato
(22.9085°S, 43.2930°W)
Time: 22:44:43
(UTC+00:00)

Cosmos 1455 Rocket - Pass Details

Date: 14 July 2020
Orbit: 606 x 628 km, 82.5° (Epoch: 10 August)

Event Time Altitude Azimuth Distance (km) Brightness Sun altitude
Exits shadow 07:33:52 25° 151° (SSE) 1,253 4.7 -27.0°
Maximum altitude 07:35:54 41° 97° (E) 891 4.2 -26.6°
Drops below altitude 10° 07:39:59 10° 26° (NNE) 1,951 6.1 -25.7°
Sets 07:42:16 0° 19° (NNE) 2,846 6.9 -25.2°
